Theta_e
313 314 316 316 317 316 314 313 313 311 309 306 307 306 303 302 303 305 306 308 309 310 311 317 318 318 324 325 328 328 323 323 324 326 328 324 325 326 328 329 329 328 330 331 330
308 311 313 315 316 316 317 315 314 312 311 310 307 308 307 303 302 303 304 304 305 307 309 310 314 320 326 326 328 327 323 323 321 326 327 328 324 325 325 327 329 330 329 329 331
309 308 311 311 313 315 316 317 316 313 312 311 309 312 312 307 304 303 303 303 303 304 310 312 317 324 326 324 326 327 325 324 325 326 327 328 329 327 323 324 326 327 329 331 332
309 310 307 309 311 313 314 316 317 316 312 312 310 313 313 309 304 315 311 304 303 303 307 313 322 324 324 321 323 325 326 325 325 325 325 327 327 327 326 323 327 326 326 330 331
306 308 308 309 309 310 312 313 315 317 315 312 310 313 313 308 308 315 316 312 305 304 306 312 321 323 322 322 319 319 322 324 322 323 323 323 326 327 327 327 327 327 327 328 331
305 306 307 307 308 307 309 312 313 315 317 313 312 311 314 309 307 312 311 314 311 306 311 312 315 320 322 320 318 319 320 320 321 324 322 322 323 325 325 325 325 326 326 328 328
302 303 305 306 306 307 308 310 311 313 316 316 312 311 314 312 307 306 317 318 316 312 312 310 314 321 320 320 321 320 320 318 320 321 322 322 321 323 324 325 326 326 326 326 327
302 302 303 304 304 306 307 309 311 311 315 317 314 313 312 313 312 309 307 316 317 317 315 312 316 322 321 321 321 320 318 320 318 321 321 322 322 320 322 323 324 324 324 324 325
301 302 303 303 304 304 305 307 309 311 312 316 316 313 313 313 312 311 310 312 316 318 317 314 316 321 321 320 319 318 318 319 318 319 320 319 320 319 321 322 322 321 321 322 322
301 300 302 302 302 302 304 306 308 310 311 311 314 314 312 312 313 313 311 312 317 319 321 320 321 317 317 320 320 319 319 317 317 317 317 318 318 316 319 320 321 320 322 322 322
300 300 301 301 302 302 303 304 306 307 310 311 311 313 312 313 313 312 310 313 318 318 320 320 321 319 318 320 316 317 316 317 316 316 317 315 317 317 318 317 317 320 320 321 320
300 300 300 300 301 302 303 304 306 308 309 310 311 313 313 312 312 312 311 310 315 317 317 320 319 316 315 318 318 315 317 316 316 315 315 315 315 314 313 315 316 317 319 322 321
300 300 300 300 300 301 302 303 304 307 307 309 309 311 313 312 312 312 311 311 317 317 318 318 316 316 316 318 320 318 317 316 318 317 316 317 318 317 315 316 317 318 319 320 320
300 299 299 299 300 300 301 302 303 305 307 308 310 310 311 312 313 312 311 313 315 316 316 317 314 316 317 318 319 319 318 316 317 318 317 316 319 316 315 314 314 316 317 318 318
299 299 300 299 301 301 300 301 302 303 308 307 308 309 310 311 311 311 311 314 315 314 314 316 315 315 317 317 318 316 316 318 316 316 317 317 317 316 315 315 314 315 317 317 317
298 299 299 299 300 299 300 301 303 306 307 307 308 309 311 311 311 312 310 312 314 313 314 313 314 314 316 315 315 314 315 315 315 317 319 317 316 315 313 314 312 314 315 316 316
298 298 298 298 299 299 299 301 305 306 304 308 310 310 310 312 312 311 311 310 314 316 316 314 313 313 315 315 314 315 316 308 320 319 317 312 315 315 312 312 312 312 314 316 316
298 298 297 297 299 299 300 302 304 304 306 307 309 310 311 310 311 311 311 311 311 311 313 314 315 313 313 316 316 317 316 315 310 312 314 312 317 315 313 314 315 315 315 315 316
297 299 298 297 298 299 300 302 302 302 305 308 308 309 310 310 311 311 311 310 311 312 312 314 313 310 312 313 314 315 318 313 310 305 308 311 312 313 313 312 312 314 314 316 314
298 299 299 298 297 299 300 301 301 302 304 306 308 308 309 310 311 311 310 310 311 311 310 310 312 309 311 312 313 314 313 317 314 314 314 313 314 313 314 314 312 312 312 313 313
298 298 299 298 297 299 300 298 298 300 301 305 306 308 307 308 310 311 311 310 310 310 311 309 309 308 309 312 315 315 314 313 313 312 312 311 311 309 311 309 311 310 312 312 312
297 297 298 297 299 298 299 296 300 300 301 302 305 306 307 308 309 309 310 310 310 310 312 310 309 308 311 311 312 313 314 314 314 312 309 311 311 311 310 309 311 312 310 310 310
297 296 298 298 298 296 294 297 300 300 302 302 304 307 307 308 309 309 310 309 310 309 312 311 312 310 312 312 312 313 313 313 312 310 313 314 313 310 311 310 312 310 309 310 310
296 297 298 298 297 295 294 299 299 301 301 301 302 304 306 306 308 308 308 308 309 310 311 311 311 312 312 311 311 312 312 313 314 314 313 313 311 309 310 310 310 308 309 309 309
297 296 298 298 297 297 297 299 301 302 302 301 301 303 303 305 307 308 308 309 309 310 310 311 313 311 309 309 311 312 312 313 314 314 314 312 312 311 309 310 310 309 309 308 308
296 296 297 291 297 298 299 299 301 302 303 303 301 301 302 299 307 307 308 310 311 309 310 311 312 311 311 310 309 311 312 312 314 314 313 311 310 309 310 310 309 309 308 308 308
296 296 297 297 298 299 298 298 299 300 300 301 301 302 303 302 303 304 303 303 308 311 311 311 311 311 313 310 311 310 310 311 311 312 312 313 312 308 308 308 308 307 307 307 306
Wind_Speed
32 31 27 24 26 24 23 19 17 16 16 16 18 19 20 21 23 23 25 25 20 18 16 11 10 7 4 3 2 1 4 2 3 4 4 3 3 3 4 7 3 3 3 3 15
30 33 34 30 27 25 25 23 20 18 16 15 16 15 17 19 22 27 29 23 20 18 16 15 13 8 3 3 3 3 4 8 4 2 4 7 2 5 1 2 1 3 4 7 15
28 30 32 37 33 29 25 26 24 20 18 15 15 14 12 14 17 28 26 24 21 20 18 13 11 5 2 6 4 4 5 4 3 3 7 8 4 4 1 1 2 7 9 11 16
28 24 31 29 39 35 30 25 26 24 21 18 15 15 12 11 7 0 2 12 22 22 21 16 12 7 4 5 6 2 10 7 5 4 5 5 6 7 2 2 7 7 10 13 16
31 31 29 27 28 31 36 30 25 26 24 21 17 17 16 16 21 4 4 8 20 26 25 24 16 14 6 6 8 4 4 13 16 18 14 9 11 6 11 11 9 8 8 12 18
37 34 30 30 27 29 29 32 29 24 27 24 21 20 22 17 22 11 7 3 12 25 25 25 16 21 10 7 5 4 6 12 11 15 13 5 11 7 6 11 14 11 10 13 17
35 38 36 30 29 27 28 29 29 29 25 27 24 22 29 28 9 23 13 6 6 18 25 28 16 18 9 3 9 12 4 6 6 7 5 10 5 9 24 17 19 20 20 20 21
32 35 34 35 36 30 27 26 27 28 22 26 25 24 22 16 29 12 27 19 9 11 21 20 24 11 5 4 3 4 4 2 4 9 6 3 14 7 15 21 26 26 21 23 23
36 34 32 34 30 35 29 26 23 24 26 21 28 29 13 19 30 29 22 23 16 12 14 15 24 12 5 4 3 2 3 6 7 9 3 7 4 6 16 26 26 28 28 21 21
37 37 35 31 31 30 30 24 22 21 25 27 25 22 19 25 27 33 27 21 22 15 12 17 10 5 5 8 11 7 7 5 6 5 8 12 18 14 30 23 28 28 25 25 21
35 34 34 32 29 28 26 23 16 14 30 21 9 8 2 24 17 24 36 23 23 24 9 20 10 21 29 18 8 10 5 10 3 6 2 7 15 13 27 28 29 33 30 32 28
35 34 33 32 31 27 27 30 28 7 8 37 29 26 14 25 16 23 35 26 18 19 8 7 25 19 8 10 13 7 14 9 4 4 7 9 16 13 14 23 25 28 33 31 27
36 34 32 31 31 28 30 37 31 26 6 17 44 34 25 12 12 31 40 32 22 21 21 16 11 12 12 13 14 18 18 8 4 2 4 2 16 11 7 17 22 16 15 15 18
35 34 32 30 28 33 35 32 29 28 7 11 19 21 32 14 9 21 39 39 10 25 20 14 22 20 13 16 18 20 15 6 7 5 8 5 10 6 4 9 8 18 18 21 25
38 37 33 33 27 27 37 32 27 28 11 16 18 23 37 18 15 19 37 36 17 11 9 16 12 15 18 23 18 10 10 13 6 6 1 9 2 5 4 8 8 14 24 24 22
38 37 35 31 33 34 25 25 27 12 10 10 22 20 22 35 15 19 22 30 14 7 16 18 10 18 13 11 17 6 5 4 4 6 11 19 6 16 11 9 8 14 26 25 28
36 36 36 34 42 35 29 28 13 15 9 8 17 23 32 22 30 13 17 26 11 12 14 16 15 3 13 7 8 8 7 1 7 8 16 9 7 23 5 9 12 14 27 32 30
33 34 35 38 38 32 30 11 18 15 6 5 13 23 31 26 24 23 18 16 21 12 9 16 11 22 8 14 8 18 18 6 8 6 6 5 10 13 6 22 29 31 35 31 30
28 32 35 41 38 36 30 16 9 12 10 5 20 20 25 22 11 25 26 25 20 23 11 16 17 7 4 5 17 8 13 12 5 2 3 5 7 7 9 10 11 17 19 11 3
28 29 39 41 39 36 13 21 7 6 4 12 21 17 20 29 21 26 26 25 18 24 11 6 6 5 22 6 14 12 9 7 7 6 6 4 4 6 2 2 6 4 12 7 11
26 16 25 37 37 26 10 13 4 13 22 8 22 13 21 23 24 16 19 15 29 27 21 6 4 4 15 17 15 8 8 5 4 5 5 3 6 8 12 8 7 7 7 9 11
20 6 19 38 11 3 9 7 5 5 15 8 6 16 15 22 26 24 23 15 41 33 29 13 3 4 18 22 20 18 21 17 7 6 3 2 7 3 7 9 12 8 9 12 11
16 13 30 41 10 5 3 7 5 13 9 9 6 10 2 18 14 21 18 24 37 24 22 17 5 5 3 2 0 23 14 16 7 3 8 8 10 6 6 9 9 11 10 7 8
13 5 11 19 21 12 7 11 11 16 6 5 2 4 6 6 13 16 15 12 24 33 35 28 5 13 15 17 13 19 27 20 19 11 18 12 18 8 5 7 2 11 7 5 7
15 5 7 10 10 9 14 10 16 7 9 6 3 1 6 5 8 4 17 12 14 36 26 17 17 11 7 5 18 22 26 24 19 26 16 20 15 15 8 4 10 11 9 9 8
12 6 6 3 18 17 14 14 13 3 9 7 6 9 5 5 6 10 5 15 16 20 24 17 7 16 12 1 8 13 18 20 23 24 18 11 11 6 11 9 10 9 9 8 7
21 11 23 9 11 12 11 16 15 5 5 10 11 6 11 12 12 15 9 16 9 14 22 18 12 9 18 7 5 1 20 19 16 16 19 15 26 7 5 8 13 14 9 9 7
Wind_Direction
249 249 249 250 246 244 247 251 255 259 256 257 250 248 249 253 253 254 253 254 253 255 250 248 255 269 268 285 253 229 75 252 267 23 307 356 6 25 80 135 146 155 187 227 177
253 248 245 247 248 247 243 245 248 252 255 260 259 252 245 251 255 253 251 248 246 244 246 242 244 245 210 266 231 172 134 213 177 75 328 342 47 326 127 144 186 187 203 181 183
254 250 248 246 246 247 246 240 240 242 247 250 252 251 249 248 266 266 265 250 242 232 229 228 218 229 225 230 220 202 192 225 190 4 0 334 326 12 340 286 212 265 241 203 191
251 253 249 249 246 246 246 245 240 238 237 238 241 240 240 230 227 63 267 218 216 223 217 213 201 200 196 229 212 227 232 235 290 286 352 297 295 315 242 240 329 307 286 229 212
254 253 252 249 249 247 244 243 244 239 235 231 231 226 222 216 222 169 132 203 202 205 209 205 196 197 185 212 249 226 272 265 278 283 296 293 277 260 262 268 296 297 262 238 227
248 251 253 250 251 248 244 241 239 243 233 230 226 221 225 232 248 205 200 208 211 197 207 202 208 203 199 228 172 198 278 286 292 277 278 273 278 262 235 257 270 283 262 241 246
254 252 254 251 253 251 245 240 237 235 237 229 224 222 231 233 223 212 207 196 198 211 205 206 197 191 215 227 242 257 286 298 249 262 261 324 283 231 269 266 270 268 268 268 258
254 252 250 252 250 247 245 239 236 231 235 227 223 225 238 253 229 234 204 213 202 215 223 219 197 215 221 234 344 177 121 205 240 207 232 144 259 267 270 269 260 266 270 278 266
253 252 250 246 245 239 244 241 237 230 227 229 224 213 237 227 233 212 200 215 205 203 204 203 204 223 201 146 348 339 158 193 263 212 184 186 268 255 256 246 252 265 273 271 276
250 249 248 248 245 243 238 240 236 233 226 234 229 190 224 213 220 215 204 200 197 185 182 197 200 181 191 180 204 191 197 221 188 227 203 238 252 261 265 264 257 259 260 261 273
244 243 243 242 240 237 232 225 225 233 220 205 198 210 72 213 209 215 204 188 189 193 184 185 191 211 206 204 194 188 201 210 210 232 204 238 259 251 257 257 253 256 254 263 272
242 240 238 238 241 232 223 215 214 205 232 221 225 220 223 187 184 207 196 187 187 198 152 168 216 215 149 196 203 202 212 215 257 210 171 265 266 254 243 257 252 256 256 251 261
236 237 232 232 234 228 227 226 219 220 253 224 224 225 211 188 200 202 191 190 189 195 197 196 226 165 177 193 199 219 219 186 175 198 250 322 283 262 236 246 256 254 257 260 266
233 233 230 225 227 226 227 226 223 222 241 204 197 224 222 197 223 210 202 183 182 202 196 221 226 187 187 201 195 217 215 163 187 160 240 154 265 239 201 246 244 263 259 267 273
229 228 224 217 211 208 223 221 218 219 236 178 186 214 203 201 141 210 201 198 193 170 170 209 170 202 197 207 182 223 170 193 175 194 97 242 268 270 185 250 253 266 272 272 273
227 221 220 219 217 225 219 214 199 218 233 183 167 171 167 197 189 184 196 201 208 173 206 214 194 183 203 196 194 137 84 132 144 187 236 239 179 267 239 248 249 241 258 264 272
222 218 217 214 213 213 211 198 208 222 144 165 176 171 184 188 201 179 192 199 187 177 191 217 226 254 176 145 181 174 141 193 214 215 236 152 176 243 242 244 251 268 268 270 272
221 225 223 217 211 208 191 206 235 215 189 166 177 184 186 181 200 196 193 206 200 211 174 194 205 217 181 201 181 197 201 191 197 204 234 158 222 237 234 247 257 255 268 273 275
217 214 212 211 210 206 199 221 216 219 169 204 165 190 196 194 166 189 199 205 203 194 187 201 218 205 188 147 169 195 207 202 97 100 82 209 279 292 251 268 294 274 268 265 196
201 201 207 207 206 201 210 233 223 202 284 190 186 187 191 193 188 194 196 201 195 205 206 205 197 197 194 152 211 181 157 179 208 194 227 240 264 233 281 244 344 129 161 128 105
198 202 204 200 200 203 219 220 225 235 205 238 212 197 191 190 200 198 193 180 192 194 214 196 144 229 159 203 181 174 203 197 173 173 189 195 247 205 232 215 161 145 121 63 69
196 203 187 196 191 184 204 196 202 217 189 245 286 194 189 191 197 208 211 200 191 187 201 197 169 167 199 208 205 197 209 199 204 221 214 132 254 224 213 139 138 127 98 73 62
174 188 181 185 196 171 223 218 215 229 189 214 252 206 162 189 194 204 207 203 189 191 188 188 201 150 102 34 319 211 206 205 197 87 196 197 247 152 134 135 84 106 99 87 57
166 172 167 198 194 189 186 241 211 207 174 169 284 177 128 172 213 206 198 196 196 199 192 182 166 215 209 207 183 197 210 202 202 208 222 211 230 263 212 151 117 134 131 77 52
189 202 188 171 183 170 198 208 179 163 195 140 226 218 161 153 180 220 223 190 186 195 196 201 206 198 234 259 182 200 202 201 203 218 214 231 229 223 257 179 163 159 156 133 96
158 160 173 145 179 182 179 188 226 135 152 166 154 212 189 165 175 177 205 193 195 195 199 196 213 199 207 294 171 195 202 198 207 221 221 224 253 173 201 195 161 161 137 101 60
197 199 164 140 165 178 192 199 207 244 227 183 179 166 207 212 200 191 216 282 250 187 195 187 188 181 206 156 94 241 206 195 207 213 210 217 236 105 187 190 164 152 141 108 74